QPF
0.04 0.08 0.11 0.08 0.07 0.08 0.08 0.09 0.08 0.09 0.12 0.11 0.10 0.10 0.12 0.13 0.12 0.12 0.12 0.16 0.19 0.21 0.27 0.27 0.17 0.14 0.12 0.12 0.11 0.13 0.14 0.16 0.14 0.11 0.09 0.06 0.06 0.07 0.08 0.06 0.05 0.05 0.06
0.04 0.07 0.09 0.09 0.07 0.07 0.07 0.07 0.06 0.07 0.10 0.10 0.09 0.08 0.10 0.11 0.12 0.11 0.13 0.19 0.21 0.26 0.25 0.15 0.10 0.10 0.10 0.10 0.09 0.09 0.12 0.13 0.12 0.10 0.09 0.08 0.08 0.07 0.07 0.07 0.05 0.05 0.06
0.03 0.04 0.06 0.08 0.06 0.06 0.05 0.06 0.07 0.08 0.11 0.12 0.11 0.09 0.10 0.10 0.10 0.11 0.14 0.18 0.22 0.22 0.14 0.08 0.06 0.06 0.07 0.07 0.07 0.07 0.08 0.09 0.09 0.08 0.08 0.06 0.06 0.08 0.07 0.08 0.07 0.06 0.05
0.02 0.03 0.04 0.07 0.06 0.07 0.07 0.07 0.08 0.06 0.07 0.11 0.12 0.11 0.13 0.10 0.09 0.10 0.10 0.13 0.13 0.13 0.12 0.09 0.05 0.06 0.06 0.05 0.05 0.04 0.05 0.06 0.07 0.05 0.03 0.03 0.03 0.05 0.07 0.07 0.05 0.05 0.04
0.01 0.02 0.05 0.07 0.06 0.07 0.04 0.04 0.06 0.06 0.06 0.09 0.10 0.11 0.13 0.11 0.09 0.09 0.09 0.08 0.09 0.08 0.09 0.10 0.07 0.06 0.06 0.05 0.04 0.04 0.04 0.05 0.05 0.02 0.01 0.02 0.03 0.06 0.06 0.05 0.03 0.03 0.03
0.01 0.03 0.05 0.07 0.06 0.07 0.05 0.05 0.06 0.09 0.08 0.07 0.07 0.09 0.11 0.12 0.10 0.09 0.08 0.08 0.09 0.08 0.09 0.11 0.08 0.06 0.05 0.04 0.04 0.04 0.05 0.04 0.02 0.01 0.01 0.01 0.03 0.05 0.04 0.05 0.03 0.03 0.03
0.02 0.04 0.04 0.06 0.06 0.06 0.07 0.05 0.06 0.07 0.08 0.07 0.08 0.07 0.09 0.13 0.12 0.11 0.09 0.08 0.08 0.09 0.09 0.10 0.07 0.06 0.05 0.05 0.05 0.04 0.04 0.03 0.01 0.01 0.01 0.01 0.03 0.04 0.03 0.03 0.03 0.03 0.03
0.01 0.03 0.04 0.07 0.06 0.05 0.05 0.05 0.04 0.05 0.06 0.09 0.10 0.09 0.10 0.13 0.13 0.13 0.11 0.10 0.09 0.09 0.09 0.08 0.06 0.06 0.04 0.03 0.04 0.03 0.04 0.02 0.01 0.01 0.01 0.01 0.02 0.03 0.03 0.03 0.03 0.04 0.03
0.02 0.02 0.03 0.06 0.07 0.06 0.05 0.03 0.04 0.05 0.06 0.08 0.10 0.10 0.12 0.16 0.18 0.17 0.13 0.12 0.10 0.09 0.09 0.08 0.06 0.06 0.05 0.04 0.04 0.03 0.04 0.04 0.01 0.01 0.01 0.01 0.03 0.03 0.02 0.02 0.04 0.05 0.03
0.01 0.02 0.02 0.04 0.07 0.06 0.06 0.05 0.04 0.04 0.04 0.06 0.09 0.12 0.17 0.19 0.18 0.19 0.14 0.13 0.11 0.11 0.10 0.09 0.07 0.06 0.06 0.05 0.06 0.06 0.05 0.04 0.02 0.01 0.01 0.02 0.03 0.04 0.03 0.04 0.06 0.05 0.05
0.02 0.04 0.04 0.02 0.06 0.09 0.09 0.08 0.07 0.06 0.05 0.05 0.07 0.12 0.16 0.13 0.11 0.14 0.13 0.12 0.13 0.13 0.10 0.08 0.05 0.07 0.07 0.07 0.07 0.06 0.04 0.02 0.02 0.02 0.02 0.04 0.04 0.06 0.06 0.06 0.07 0.06 0.06
0.01 0.01 0.01 0.01 0.02 0.03 0.05 0.06 0.05 0.06 0.05 0.04 0.05 0.08 0.08 0.11 0.08 0.10 0.13 0.14 0.15 0.14 0.11 0.10 0.09 0.09 0.06 0.04 0.04 0.05 0.03 0.01 0.02 0.02 0.03 0.04 0.05 0.06 0.07 0.07 0.06 0.07 0.07
0.01 0.01 0.01 0.01 0.01 0.01 0.02 0.02 0.02 0.04 0.04 0.03 0.04 0.04 0.07 0.12 0.09 0.09 0.11 0.14 0.18 0.16 0.09 0.09 0.10 0.06 0.03 0.02 0.02 0.02 0.03 0.02 0.03 0.03 0.03 0.04 0.05 0.06 0.06 0.07 0.06 0.06 0.07
0.01 0.00 0.01 0.01 0.01 0.01 0.01 0.01 0.02 0.02 0.02 0.02 0.02 0.02 0.06 0.11 0.08 0.08 0.09 0.10 0.14 0.12 0.07 0.05 0.04 0.04 0.03 0.03 0.03 0.04 0.04 0.04 0.04 0.04 0.05 0.05 0.05 0.05 0.05 0.05 0.05 0.05 0.06
0.01 0.02 0.01 0.00 0.02 0.02 0.02 0.01 0.02 0.03 0.03 0.02 0.02 0.04 0.06 0.09 0.07 0.07 0.07 0.07 0.08 0.10 0.10 0.06 0.05 0.06 0.06 0.05 0.05 0.06 0.05 0.03 0.02 0.03 0.03 0.05 0.05 0.05 0.06 0.07 0.06 0.06 0.06
0.01 0.02 0.02 0.01 0.02 0.03 0.03 0.02 0.02 0.04 0.05 0.05 0.04 0.05 0.07 0.09 0.08 0.08 0.08 0.07 0.06 0.07 0.06 0.05 0.05 0.05 0.05 0.06 0.05 0.05 0.05 0.04 0.03 0.02 0.02 0.04 0.06 0.04 0.05 0.07 0.07 0.07 0.06
0.01 0.01 0.01 0.04 0.06 0.07 0.04 0.04 0.04 0.04 0.05 0.04 0.03 0.04 0.08 0.11 0.09 0.10 0.09 0.08 0.06 0.05 0.04 0.04 0.03 0.04 0.05 0.05 0.03 0.04 0.05 0.05 0.04 0.03 0.03 0.04 0.05 0.06 0.06 0.06 0.06 0.06 0.06
0.01 0.01 0.02 0.07 0.07 0.07 0.04 0.04 0.04 0.04 0.04 0.03 0.04 0.06 0.09 0.10 0.07 0.08 0.09 0.09 0.07 0.05 0.06 0.04 0.04 0.05 0.05 0.06 0.05 0.04 0.04 0.04 0.04 0.03 0.03 0.03 0.03 0.03 0.04 0.05 0.05 0.04 0.05
0.02 0.02 0.02 0.06 0.05 0.03 0.03 0.04 0.04 0.05 0.04 0.03 0.05 0.05 0.09 0.09 0.06 0.06 0.08 0.09 0.08 0.07 0.06 0.04 0.04 0.06 0.06 0.06 0.05 0.04 0.03 0.03 0.03 0.03 0.03 0.02 0.03 0.03 0.03 0.03 0.04 0.04 0.04
0.04 0.03 0.03 0.04 0.04 0.03 0.02 0.03 0.04 0.05 0.05 0.03 0.03 0.04 0.06 0.06 0.07 0.07 0.07 0.10 0.10 0.08 0.05 0.05 0.06 0.07 0.07 0.07 0.07 0.04 0.03 0.03 0.02 0.03 0.02 0.01 0.01 0.01 0.01 0.01 0.02 0.02 0.02
0.07 0.05 0.03 0.03 0.03 0.03 0.02 0.03 0.03 0.04 0.04 0.03 0.02 0.04 0.04 0.04 0.04 0.05 0.09 0.10 0.09 0.08 0.06 0.06 0.07 0.06 0.05 0.05 0.05 0.04 0.03 0.03 0.02 0.02 0.01 0.01 0.01 0.01 0.01 0.01 0.01 0.01 0.01
0.08 0.06 0.03 0.03 0.03 0.03 0.03 0.03 0.03 0.04 0.04 0.04 0.03 0.06 0.05 0.04 0.03 0.04 0.07 0.08 0.07 0.07 0.05 0.06 0.06 0.04 0.03 0.05 0.06 0.07 0.04 0.03 0.02 0.01 0.01 0.01 0.01 0.02 0.01 0.01 0.02 0.01 0.01
0.07 0.04 0.02 0.03 0.03 0.04 0.06 0.05 0.05 0.05 0.05 0.05 0.05 0.07 0.08 0.06 0.05 0.05 0.05 0.07 0.09 0.10 0.07 0.07 0.08 0.05 0.04 0.06 0.06 0.06 0.05 0.04 0.02 0.01 0.01 0.01 0.01 0.02 0.01 0.02 0.03 0.02 0.02
0.03 0.02 0.02 0.02 0.03 0.05 0.09 0.09 0.07 0.06 0.05 0.05 0.06 0.08 0.10 0.10 0.08 0.07 0.08 0.10 0.10 0.10 0.09 0.08 0.09 0.07 0.07 0.07 0.06 0.05 0.04 0.03 0.03 0.02 0.01 0.01 0.01 0.01 0.01 0.01 0.01 0.02 0.02
0.02 0.02 0.02 0.02 0.03 0.04 0.05 0.06 0.05 0.04 0.04 0.04 0.04 0.07 0.09 0.11 0.11 0.11 0.11 0.10 0.08 0.08 0.09 0.09 0.12 0.11 0.14 0.06 0.04 0.03 0.02 0.02 0.02 0.02 0.02 0.01 0.01 0.02 0.02 0.01 0.01 0.02 0.02
0.01 0.01 0.01 0.01 0.01 0.02 0.02 0.02 0.03 0.03 0.03 0.03 0.03 0.03 0.05 0.08 0.10 0.11 0.11 0.08 0.06 0.05 0.05 0.08 0.11 0.12 0.11 0.04 0.04 0.03 0.03 0.04 0.04 0.04 0.03 0.02 0.01 0.01 0.01 0.02 0.02 0.03 0.03
MSLP
1011.22 1010.78 1010.43 1010.23 1010.19 1010.28 1010.46 1010.69 1010.93 1011.15 1011.36 1011.55 1011.76 1012.00 1012.27 1012.56 1012.86 1013.14 1013.37 1013.55 1013.68 1013.77 1013.84 1013.92 1014.02 1014.14 1014.29 1014.43 1014.56 1014.66 1014.74 1014.79 1014.85 1014.93 1015.04 1015.19 1015.39 1015.61 1015.84 1016.07 1016.27 1016.45 1016.61
1011.23 1010.85 1010.57 1010.42 1010.42 1010.54 1010.73 1010.96 1011.20 1011.41 1011.61 1011.80 1012.02 1012.26 1012.54 1012.85 1013.15 1013.42 1013.65 1013.81 1013.91 1013.98 1014.03 1014.09 1014.17 1014.28 1014.41 1014.54 1014.66 1014.76 1014.83 1014.90 1014.98 1015.09 1015.23 1015.42 1015.64 1015.88 1016.11 1016.33 1016.52 1016.68 1016.82
1011.11 1010.82 1010.62 1010.56 1010.62 1010.79 1011.02 1011.28 1011.52 1011.73 1011.93 1012.11 1012.31 1012.55 1012.82 1013.11 1013.39 1013.65 1013.86 1014.00 1014.09 1014.14 1014.18 1014.23 1014.30 1014.41 1014.53 1014.65 1014.77 1014.87 1014.96 1015.06 1015.16 1015.30 1015.47 1015.69 1015.92 1016.16 1016.39 1016.60 1016.77 1016.92 1017.05
1010.94 1010.74 1010.65 1010.68 1010.83 1011.07 1011.35 1011.63 1011.89 1012.10 1012.28 1012.44 1012.62 1012.83 1013.07 1013.33 1013.58 1013.82 1014.00 1014.12 1014.20 1014.25 1014.30 1014.35 1014.44 1014.55 1014.68 1014.81 1014.93 1015.05 1015.15 1015.26 1015.39 1015.55 1015.75 1015.98 1016.22 1016.46 1016.67 1016.86 1017.02 1017.15 1017.28
1010.80 1010.70 1010.71 1010.84 1011.07 1011.37 1011.70 1012.01 1012.26 1012.47 1012.62 1012.76 1012.91 1013.09 1013.29 1013.51 1013.73 1013.93 1014.09 1014.21 1014.29 1014.35 1014.41 1014.49 1014.60 1014.73 1014.88 1015.02 1015.16 1015.28 1015.40 1015.52 1015.66 1015.83 1016.04 1016.26 1016.50 1016.72 1016.92 1017.09 1017.22 1017.35 1017.49
1010.77 1010.76 1010.85 1011.05 1011.35 1011.70 1012.05 1012.36 1012.61 1012.79 1012.93 1013.04 1013.16 1013.31 1013.48 1013.67 1013.86 1014.04 1014.18 1014.29 1014.38 1014.45 1014.54 1014.65 1014.79 1014.95 1015.12 1015.28 1015.43 1015.56 1015.68 1015.80 1015.94 1016.11 1016.30 1016.51 1016.73 1016.92 1017.10 1017.24 1017.37 1017.50 1017.65
1010.86 1010.92 1011.07 1011.32 1011.65 1012.01 1012.36 1012.65 1012.88 1013.05 1013.16 1013.26 1013.37 1013.50 1013.66 1013.83 1014.01 1014.16 1014.29 1014.39 1014.48 1014.57 1014.69 1014.82 1014.99 1015.18 1015.38 1015.56 1015.71 1015.84 1015.95 1016.06 1016.19 1016.33 1016.50 1016.69 1016.87 1017.04 1017.19 1017.32 1017.44 1017.57 1017.73
1011.07 1011.17 1011.36 1011.63 1011.96 1012.30 1012.62 1012.88 1013.07 1013.22 1013.32 1013.42 1013.53 1013.67 1013.83 1014.01 1014.18 1014.32 1014.44 1014.53 1014.61 1014.71 1014.83 1014.99 1015.18 1015.39 1015.61 1015.79 1015.95 1016.08 1016.17 1016.26 1016.36 1016.47 1016.61 1016.76 1016.92 1017.06 1017.19 1017.30 1017.41 1017.54 1017.72
1011.32 1011.46 1011.67 1011.94 1012.24 1012.54 1012.81 1013.02 1013.19 1013.31 1013.42 1013.53 1013.67 1013.84 1014.03 1014.21 1014.38 1014.52 1014.61 1014.69 1014.75 1014.84 1014.96 1015.12 1015.33 1015.55 1015.77 1015.97 1016.12 1016.24 1016.31 1016.38 1016.44 1016.52 1016.62 1016.75 1016.87 1017.00 1017.11 1017.21 1017.32 1017.45 1017.62
1011.56 1011.72 1011.94 1012.20 1012.47 1012.73 1012.94 1013.12 1013.25 1013.37 1013.49 1013.63 1013.81 1014.02 1014.23 1014.44 1014.61 1014.73 1014.80 1014.84 1014.88 1014.94 1015.05 1015.21 1015.41 1015.64 1015.87 1016.07 1016.22 1016.33 1016.38 1016.42 1016.45 1016.50 1016.57 1016.67 1016.78 1016.89 1016.99 1017.09 1017.20 1017.32 1017.49
1011.70 1011.91 1012.14 1012.39 1012.64 1012.86 1013.03 1013.17 1013.29 1013.41 1013.55 1013.73 1013.95 1014.20 1014.44 1014.66 1014.82 1014.92 1014.96 1014.96 1014.97 1015.00 1015.09 1015.25 1015.46 1015.70 1015.94 1016.14 1016.29 1016.38 1016.42 1016.43 1016.43 1016.45 1016.49 1016.57 1016.67 1016.78 1016.89 1016.99 1017.10 1017.21 1017.36
1011.70 1011.96 1012.22 1012.49 1012.73 1012.93 1013.09 1013.21 1013.33 1013.46 1013.63 1013.84 1014.10 1014.37 1014.62 1014.84 1014.98 1015.06 1015.07 1015.04 1015.02 1015.03 1015.11 1015.27 1015.49 1015.75 1016.00 1016.22 1016.37 1016.46 1016.48 1016.46 1016.43 1016.42 1016.45 1016.51 1016.60 1016.72 1016.83 1016.94 1017.05 1017.15 1017.27
1011.54 1011.86 1012.17 1012.47 1012.73 1012.94 1013.10 1013.24 1013.37 1013.52 1013.71 1013.95 1014.21 1014.49 1014.74 1014.94 1015.07 1015.12 1015.10 1015.06 1015.02 1015.04 1015.14 1015.31 1015.56 1015.85 1016.13 1016.36 1016.53 1016.61 1016.62 1016.58 1016.52 1016.48 1016.48 1016.53 1016.62 1016.74 1016.86 1016.98 1017.09 1017.18 1017.27
1011.23 1011.61 1011.98 1012.32 1012.61 1012.86 1013.06 1013.23 1013.39 1013.57 1013.78 1014.02 1014.29 1014.55 1014.78 1014.95 1015.05 1015.08 1015.06 1015.02 1015.01 1015.05 1015.19 1015.41 1015.70 1016.03 1016.34 1016.61 1016.79 1016.87 1016.87 1016.82 1016.73 1016.67 1016.64 1016.67 1016.74 1016.86 1016.99 1017.11 1017.22 1017.29 1017.35
1010.80 1011.22 1011.64 1012.03 1012.38 1012.69 1012.94 1013.17 1013.37 1013.58 1013.80 1014.03 1014.28 1014.51 1014.70 1014.84 1014.92 1014.95 1014.94 1014.94 1014.97 1015.08 1015.28 1015.57 1015.92 1016.30 1016.67 1016.96 1017.16 1017.26 1017.25 1017.18 1017.08 1016.98 1016.93 1016.93 1016.99 1017.10 1017.22 1017.34 1017.44 1017.50 1017.53
1010.30 1010.74 1011.18 1011.62 1012.02 1012.39 1012.72 1013.00 1013.26 1013.50 1013.74 1013.96 1014.17 1014.35 1014.51 1014.62 1014.69 1014.73 1014.76 1014.82 1014.94 1015.13 1015.42 1015.78 1016.21 1016.65 1017.06 1017.39 1017.61 1017.72 1017.73 1017.65 1017.54 1017.43 1017.35 1017.33 1017.37 1017.45 1017.56 1017.66 1017.74 1017.79 1017.79
1009.76 1010.18 1010.63 1011.10 1011.55 1011.98 1012.37 1012.73 1013.05 1013.33 1013.57 1013.78 1013.96 1014.10 1014.22 1014.30 1014.38 1014.45 1014.54 1014.68 1014.89 1015.19 1015.56 1016.01 1016.50 1017.00 1017.45 1017.82 1018.07 1018.21 1018.24 1018.18 1018.07 1017.96 1017.87 1017.83 1017.85 1017.90 1017.98 1018.06 1018.12 1018.14 1018.13
1009.22 1009.60 1010.02 1010.48 1010.97 1011.45 1011.92 1012.35 1012.73 1013.05 1013.31 1013.51 1013.66 1013.77 1013.85 1013.93 1014.02 1014.13 1014.30 1014.53 1014.83 1015.22 1015.68 1016.20 1016.75 1017.28 1017.77 1018.17 1018.47 1018.65 1018.72 1018.71 1018.64 1018.55 1018.47 1018.43 1018.42 1018.45 1018.50 1018.54 1018.57 1018.57 1018.52
1008.69 1009.00 1009.38 1009.82 1010.32 1010.85 1011.38 1011.88 1012.32 1012.69 1012.97 1013.17 1013.30 1013.38 1013.45 1013.53 1013.64 1013.80 1014.03 1014.35 1014.74 1015.20 1015.73 1016.30 1016.87 1017.44 1017.95 1018.39 1018.73 1018.97 1019.11 1019.18 1019.18 1019.14 1019.10 1019.07 1019.06 1019.07 1019.08 1019.09 1019.08 1019.04 1018.96
1008.15 1008.39 1008.72 1009.14 1009.64 1010.21 1010.79 1011.36 1011.86 1012.27 1012.58 1012.78 1012.90 1012.98 1013.04 1013.12 1013.26 1013.46 1013.76 1014.14 1014.59 1015.11 1015.67 1016.26 1016.85 1017.42 1017.95 1018.42 1018.82 1019.14 1019.38 1019.54 1019.64 1019.70 1019.72 1019.73 1019.73 1019.73 1019.72 1019.69 1019.64 1019.56 1019.45
1007.58 1007.77 1008.06 1008.46 1008.97 1009.56 1010.19 1010.81 1011.37 1011.83 1012.16 1012.38 1012.50 1012.57 1012.63 1012.73 1012.89 1013.13 1013.46 1013.89 1014.38 1014.91 1015.48 1016.07 1016.65 1017.22 1017.76 1018.26 1018.72 1019.13 1019.48 1019.77 1019.99 1020.16 1020.27 1020.35 1020.38 1020.38 1020.35 1020.29 1020.21 1020.09 1019.95
1006.95 1007.13 1007.40 1007.79 1008.32 1008.94 1009.61 1010.28 1010.88 1011.38 1011.74 1011.98 1012.11 1012.18 1012.24 1012.35 1012.52 1012.79 1013.15 1013.59 1014.09 1014.63 1015.18 1015.74 1016.30 1016.85 1017.39 1017.93 1018.45 1018.95 1019.42 1019.84 1020.20 1020.49 1020.71 1020.86 1020.94 1020.96 1020.93 1020.85 1020.74 1020.61 1020.44
1006.24 1006.43 1006.72 1007.14 1007.69 1008.34 1009.05 1009.76 1010.40 1010.93 1011.32 1011.57 1011.71 1011.79 1011.86 1011.98 1012.16 1012.44 1012.81 1013.25 1013.74 1014.26 1014.79 1015.31 1015.83 1016.36 1016.90 1017.46 1018.04 1018.62 1019.20 1019.74 1020.23 1020.64 1020.96 1021.19 1021.34 1021.39 1021.38 1021.31 1021.19 1021.05 1020.87
1005.41 1005.66 1006.00 1006.47 1007.06 1007.75 1008.50 1009.24 1009.92 1010.47 1010.89 1011.16 1011.31 1011.40 1011.49 1011.60 1011.80 1012.08 1012.44 1012.88 1013.35 1013.84 1014.33 1014.82 1015.31 1015.82 1016.35 1016.92 1017.54 1018.18 1018.84 1019.47 1020.06 1020.58 1021.00 1021.31 1021.51 1021.62 1021.65 1021.60 1021.51 1021.38 1021.22
1004.49 1004.82 1005.24 1005.76 1006.41 1007.14 1007.92 1008.70 1009.40 1009.99 1010.42 1010.71 1010.89 1011.00 1011.10 1011.22 1011.42 1011.70 1012.07 1012.49 1012.94 1013.40 1013.86 1014.32 1014.78 1015.26 1015.79 1016.36 1016.99 1017.67 1018.37 1019.07 1019.72 1020.31 1020.80 1021.18 1021.45 1021.62 1021.70 1021.71 1021.66 1021.57 1021.45
1003.49 1003.92 1004.42 1005.01 1005.71 1006.49 1007.31 1008.11 1008.84 1009.45 1009.92 1010.24 1010.45 1010.58 1010.70 1010.85 1011.06 1011.34 1011.70 1012.10 1012.54 1012.98 1013.42 1013.85 1014.29 1014.76 1015.26 1015.82 1016.45 1017.12 1017.83 1018.54 1019.22 1019.84 1020.38 1020.82 1021.15 1021.40 1021.55 1021.64 1021.66 1021.64 1021.58
Thickness
5770 5774 5776 5777 5777 5778 5779 5779 5780 5780 5781 5781 5781 5780 5778 5777 5776 5775 5774 5773 5772 5771 5770 5769 5768 5767 5766 5765 5764 5762 5760 5759 5757 5756 5755 5755 5754 5753 5751 5750 5749 5748 5747
5774 5774 5775 5775 5776 5776 5777 5778 5779 5779 5779 5779 5779 5778 5777 5776 5775 5774 5773 5772 5771 5770 5769 5768 5767 5765 5764 5763 5762 5760 5759 5757 5756 5755 5754 5753 5752 5751 5750 5749 5748 5747 5746
5774 5774 5774 5775 5775 5775 5776 5776 5777 5777 5777 5777 5777 5776 5776 5775 5774 5773 5772 5772 5770 5769 5768 5767 5766 5764 5763 5761 5760 5759 5757 5756 5754 5753 5752 5751 5750 5750 5749 5748 5747 5746 5745
5774 5774 5774 5774 5774 5774 5774 5775 5775 5775 5775 5775 5775 5774 5773 5773 5772 5772 5771 5770 5769 5768 5767 5766 5764 5763 5762 5760 5759 5757 5756 5755 5753 5752 5751 5750 5749 5748 5748 5747 5746 5745 5743
5774 5773 5773 5773 5772 5773 5773 5773 5773 5773 5773 5773 5773 5772 5772 5771 5770 5770 5769 5768 5767 5766 5765 5764 5762 5761 5760 5759 5757 5756 5755 5753 5752 5751 5750 5749 5748 5747 5746 5745 5744 5743 5742
5773 5772 5772 5772 5771 5771 5771 5772 5772 5772 5772 5771 5771 5770 5770 5770 5769 5768 5767 5766 5765 5764 5763 5762 5761 5760 5758 5757 5756 5755 5754 5752 5751 5750 5748 5747 5746 5745 5745 5743 5742 5741 5740
5771 5771 5771 5770 5770 5770 5770 5770 5771 5771 5771 5770 5770 5769 5769 5768 5767 5766 5765 5764 5764 5763 5762 5761 5760 5758 5757 5756 5755 5754 5752 5751 5749 5748 5747 5746 5745 5744 5743 5742 5741 5739 5738
5771 5770 5770 5769 5769 5769 5768 5769 5770 5770 5770 5770 5770 5769 5768 5767 5766 5765 5764 5763 5762 5761 5761 5760 5758 5757 5756 5755 5754 5753 5752 5750 5748 5747 5746 5745 5744 5743 5742 5741 5739 5738 5736
5770 5769 5769 5768 5768 5768 5768 5768 5768 5769 5769 5769 5769 5768 5767 5766 5764 5763 5762 5762 5761 5760 5759 5758 5757 5756 5755 5754 5752 5751 5750 5749 5747 5746 5745 5744 5743 5742 5740 5739 5738 5737 5735
5769 5768 5768 5768 5767 5767 5767 5767 5767 5768 5768 5768 5767 5766 5766 5764 5763 5762 5761 5761 5760 5759 5758 5757 5755 5755 5753 5752 5751 5750 5749 5747 5746 5745 5744 5743 5742 5741 5739 5739 5737 5736 5735
5768 5767 5767 5767 5767 5766 5766 5766 5766 5767 5767 5766 5766 5765 5764 5763 5761 5761 5760 5759 5759 5758 5757 5755 5754 5753 5751 5750 5749 5748 5747 5746 5745 5744 5744 5743 5742 5740 5739 5738 5737 5736 5734
5765 5766 5767 5766 5766 5766 5766 5765 5766 5766 5765 5765 5765 5764 5763 5762 5760 5759 5759 5759 5758 5757 5756 5754 5753 5751 5750 5748 5748 5747 5745 5745 5744 5743 5743 5742 5741 5740 5739 5738 5736 5735 5734
5767 5767 5767 5767 5766 5766 5765 5765 5765 5765 5765 5765 5764 5763 5762 5760 5759 5758 5758 5757 5756 5755 5754 5752 5751 5749 5748 5747 5746 5745 5744 5744 5743 5742 5741 5741 5740 5739 5738 5737 5736 5735 5733
5768 5768 5768 5768 5767 5766 5765 5765 5765 5765 5765 5764 5764 5763 5761 5760 5759 5757 5757 5756 5755 5753 5752 5750 5749 5748 5747 5746 5745 5744 5743 5743 5742 5741 5740 5740 5739 5738 5737 5736 5734 5733 5732
5769 5769 5769 5769 5768 5767 5766 5765 5765 5765 5764 5764 5764 5763 5761 5760 5758 5757 5756 5755 5754 5752 5750 5749 5748 5746 5745 5744 5743 5743 5742 5741 5740 5739 5738 5738 5737 5737 5736 5735 5733 5732 5731
5772 5771 5771 5770 5769 5768 5767 5766 5765 5765 5765 5764 5764 5763 5761 5760 5759 5757 5756 5755 5753 5752 5750 5748 5747 5745 5743 5742 5741 5740 5740 5739 5738 5737 5736 5736 5735 5735 5734 5733 5732 5731 5730
5775 5774 5772 5772 5771 5769 5768 5767 5766 5765 5765 5764 5763 5762 5761 5760 5758 5757 5756 5754 5753 5751 5749 5747 5745 5744 5742 5741 5740 5739 5738 5737 5736 5736 5735 5734 5733 5732 5732 5731 5730 5729 5729
5777 5775 5774 5774 5772 5770 5769 5768 5767 5766 5765 5764 5763 5762 5761 5760 5758 5757 5755 5754 5752 5750 5748 5746 5745 5742 5740 5739 5738 5737 5736 5735 5735 5734 5733 5731 5730 5730 5729 5729 5728 5727 5726
5780 5777 5775 5774 5773 5771 5770 5768 5767 5766 5765 5764 5763 5761 5761 5759 5758 5756 5755 5753 5752 5750 5748 5746 5743 5742 5739 5737 5736 5734 5734 5733 5732 5732 5731 5729 5728 5727 5727 5726 5725 5725 5724
5782 5779 5777 5776 5774 5773 5771 5768 5767 5766 5765 5764 5763 5762 5761 5760 5758 5756 5754 5752 5751 5749 5746 5745 5742 5740 5738 5736 5734 5732 5731 5731 5730 5729 5728 5727 5726 5725 5724 5723 5723 5722 5722
5783 5780 5778 5776 5775 5774 5771 5768 5765 5764 5764 5764 5763 5762 5761 5759 5758 5756 5754 5752 5750 5748 5746 5744 5741 5738 5735 5734 5730 5727 5727 5728 5728 5727 5726 5725 5724 5723 5722 5721 5720 5720 5720
5786 5783 5781 5778 5777 5775 5773 5771 5769 5767 5765 5764 5763 5762 5761 5759 5757 5756 5754 5752 5750 5747 5745 5743 5740 5736 5734 5733 5729 5724 5720 5721 5723 5725 5724 5723 5722 5722 5721 5720 5719 5718 5717
5787 5785 5784 5781 5779 5777 5775 5772 5769 5766 5764 5762 5761 5760 5760 5759 5758 5756 5754 5752 5749 5747 5744 5742 5740 5737 5732 5731 5731 5726 5719 5716 5717 5720 5721 5720 5720 5719 5719 5718 5717 5716 5716
5791 5789 5786 5783 5780 5778 5776 5772 5768 5764 5760 5761 5760 5760 5760 5758 5757 5756 5753 5751 5749 5747 5744 5742 5740 5737 5734 5730 5729 5728 5726 5723 5717 5714 5717 5717 5717 5716 5716 5716 5715 5715 5714
5795 5792 5788 5784 5781 5779 5776 5773 5769 5766 5763 5761 5760 5758 5757 5756 5756 5754 5753 5751 5748 5746 5744 5742 5740 5737 5734 5732 5729 5727 5724 5722 5720 5715 5711 5712 5713 5714 5714 5713 5713 5712 5712
5796 5793 5789 5785 5781 5779 5776 5774 5770 5767 5764 5760 5758 5756 5755 5754 5754 5753 5752 5750 5748 5746 5744 5742 5740 5737 5735 5733 5731 5728 5725 5722 5719 5715 5711 5709 5709 5710 5711 5711 5710 5709 5709